This is the latest recevied weather packets stored in our database for station/object N8HON. If no packets are shown the sender has not sent any weather packets the latest 10 day(s).
| Time | Temp. | Humidity | Pressure | Rain* | Wind** | Luminosity | Snow |
|---|---|---|---|---|---|---|---|
| 1777944571 | 14.44° C | 68% | 1010.6 hPa | 0 mm | - | 0 W/m² | - |
| 1777944269 | 14.44° C | 69% | 1010.5 hPa | 0 mm | - | 0 W/m² | - |
| 1777943966 | 15° C | 67% | 1010.6 hPa | 0 mm | - | 0 W/m² | - |
| 1777943662 | 15° C | 67% | 1010.6 hPa | 0 mm | - | 0 W/m² | - |
| 1777943359 | 15.56° C | 67% | 1010.6 hPa | 0 mm | - | 0 W/m² | - |
| 1777943054 | 15.56° C | 66% | 1010.4 hPa | 0 mm | - | 0 W/m² | - |
| 1777942750 | 15.56° C | 66% | 1010.2 hPa | 0 mm | - | 0 W/m² | - |
| 1777942448 | 15.56° C | 65% | 1010.4 hPa | 0 mm | - | 0 W/m² | - |
| 1777942145 | 16.11° C | 65% | 1010.4 hPa | 0 mm | - | 0 W/m² | - |
| 1777941841 | 16.11° C | 65% | 1010.2 hPa | 0 mm | - | 0 W/m² | - |
| 1777941538 | 16.11° C | 63% | 1010.1 hPa | 0 mm | - | 0 W/m² | - |
| 1777941236 | 16.11° C | 64% | 1010.5 hPa | 0 mm | - | 0 W/m² | - |
| 1777940931 | 16.11° C | 64% | 1009.9 hPa | 0 mm | - | 0 W/m² | - |
| 1777940628 | 15.56° C | 66% | 1010 hPa | 0 mm | - | 0 W/m² | - |
| 1777940327 | 16.11° C | 65% | 1010.2 hPa | 0 mm | - | 0 W/m² | - |
| 1777940024 | 16.11° C | 65% | 1010.1 hPa | 0 mm | - | 1 W/m² | - |
| 1777939721 | 16.67° C | 64% | 1010 hPa | 0 mm | - | 3 W/m² | - |
| 1777939419 | 16.67° C | 63% | 1010.2 hPa | 0 mm | - | 8 W/m² | - |
| 1777939115 | 16.67° C | 64% | 1009.9 hPa | 0 mm | - | 13 W/m² | - |
| 1777938812 | 16.67° C | 63% | 1010 hPa | 0 mm | - | 21 W/m² | - |
| 1777938509 | 16.67° C | 61% | 1009.8 hPa | 0 mm | - | 26 W/m² | - |
| 1777938207 | 17.22° C | 61% | 1009.7 hPa | 0 mm | - | 22 W/m² | - |
| 1777937903 | 17.22° C | 59% | 1009.8 hPa | 0 mm | - | 17 W/m² | - |
| 1777937599 | 17.78° C | 59% | 1009.5 hPa | 0 mm | - | 25 W/m² | - |
| 1777937295 | 17.78° C | 57% | 1009.8 hPa | 0 mm | - | 38 W/m² | - |
* Rain latest hour (hover to see other rain measurements)
** Current wind speed in m/s (hover to see current wind gust speed)